• In Moldova, Republic
  • List of Countries
  • For 7 days
  • Water Temperature
  • Satellite Maps
  • Weather Map
  • Weather Widgets
  • user-avatar
    Login

    Hourly Weather Korçe

    Today, 20 February, Monday

    Time Temperature Precipitation Wind Pressure Humidity
    00:00 +1°C° 0 mm 1 mps 667 mmHg 94%
    01:00 +1°C° 0 mm 2 mps 667 mmHg 94%
    02:00 +1°C° 0 mm 1 mps 667 mmHg 94%
    03:00 +1°C° 0 mm 1 mps 667 mmHg 93%
    04:00 +1°C° 0 mm 1 mps 667 mmHg 93%
    05:00 +1°C° 0 mm 1 mps 667 mmHg 93%
    06:00 0°C° 0 mm 1 mps 667 mmHg 94%
    07:00 0°C° 0 mm 1 mps 667 mmHg 94%
    08:00 +2°C° 0 mm 1 mps 668 mmHg 85%
    09:00 +3°C° 0 mm 1 mps 668 mmHg 76%
    10:00 +5°C° 0 mm 1 mps 668 mmHg 67%
    11:00 +5°C° 0 mm 1 mps 668 mmHg 64%
    12:00 +6°C° 0 mm 1 mps 668 mmHg 62%
    13:00 +5°C° 0 mm 2 mps 668 mmHg 60%
    14:00 +5°C° 0 mm 2 mps 668 mmHg 62%
    15:00 +6°C° 0 mm 1 mps 668 mmHg 65%
    16:00 +5°C° 0 mm 1 mps 668 mmHg 68%
    17:00 +3°C° 0 mm 1 mps 667 mmHg 75%
    18:00 +2°C° 0 mm 1 mps 667 mmHg 81%
    19:00 0°C° 0 mm 1 mps 666 mmHg 88%
    20:00 0°C° 0 mm 1 mps 666 mmHg 88%
    21:00 0°C° 0 mm 1 mps 666 mmHg 89%
    22:00 -1°C° 0 mm 1 mps 666 mmHg 90%
    23:00 -2°C° 0 mm 0 mps 666 mmHg 90%

    Tomorrow, 21 February, Tuesday

    Time Temperature Precipitation Wind Pressure Humidity
    00:00 -2°C° 0 mm 0 mps 666 mmHg 90%
    01:00 -2°C° 0 mm 0 mps 666 mmHg 90%
    02:00 -1°C° 0 mm 1 mps 666 mmHg 90%
    03:00 -1°C° 0 mm 1 mps 666 mmHg 89%
    04:00 -1°C° 0 mm 1 mps 665 mmHg 89%
    05:00 -1°C° 0 mm 1 mps 666 mmHg 87%
    06:00 -1°C° 0 mm 1 mps 666 mmHg 86%
    07:00 -1°C° 0 mm 1 mps 666 mmHg 84%
    08:00 +1°C° 0 mm 1 mps 666 mmHg 73%
    09:00 +4°C° 0 mm 1 mps 667 mmHg 63%
    10:00 +6°C° 0 mm 1 mps 668 mmHg 52%
    11:00 +6°C° 0 mm 1 mps 668 mmHg 49%
    12:00 +6°C° 0 mm 2 mps 667 mmHg 46%
    13:00 +7°C° 0 mm 2 mps 667 mmHg 43%
    14:00 +6°C° 0 mm 2 mps 667 mmHg 49%
    15:00 +6°C° 0 mm 2 mps 667 mmHg 54%
    16:00 +5°C° 0 mm 2 mps 666 mmHg 59%
    17:00 +3°C° 0 mm 2 mps 666 mmHg 68%
    18:00 +1°C° 0 mm 2 mps 666 mmHg 77%
    19:00 0°C° 0 mm 1 mps 665 mmHg 86%
    20:00 0°C° 0 mm 1 mps 665 mmHg 85%
    21:00 -1°C° 0 mm 1 mps 665 mmHg 85%
    22:00 -1°C° 0 mm 1 mps 665 mmHg 85%
    23:00 -1°C° 0 mm 1 mps 666 mmHg 82%

    Day after tomorrow, 22 February, Wednesday

    Time Temperature Precipitation Wind Pressure Humidity
    00:00 -1°C° 0 mm 1 mps 666 mmHg 79%
    01:00 0°C° 0 mm 1 mps 666 mmHg 77%
    02:00 0°C° 0 mm 1 mps 666 mmHg 74%
    03:00 -1°C° 0 mm 1 mps 665 mmHg 71%
    04:00 -1°C° 0 mm 1 mps 665 mmHg 68%
    05:00 0°C° 0 mm 1 mps 666 mmHg 67%
    06:00 0°C° 0 mm 1 mps 666 mmHg 65%
    07:00 +1°C° 0 mm 1 mps 666 mmHg 63%
    08:00 +3°C° 0 mm 1 mps 667 mmHg 57%
    09:00 +6°C° 0 mm 1 mps 668 mmHg 50%
    10:00 +9°C° 0 mm 1 mps 669 mmHg 44%
    11:00 +10°C° 0 mm 1 mps 669 mmHg 45%
    12:00 +10°C° 0 mm 1 mps 669 mmHg 46%
    13:00 +11°C° 0 mm 1 mps 669 mmHg 47%
    14:00 +10°C° 0 mm 1 mps 668 mmHg 53%
    15:00 +10°C° 0 mm 1 mps 668 mmHg 60%
    16:00 +9°C° 0 mm 1 mps 668 mmHg 66%
    17:00 +7°C° 0 mm 1 mps 667 mmHg 75%
    18:00 +4°C° 0 mm 1 mps 667 mmHg 83%
    19:00 +2°C° 0 mm 1 mps 667 mmHg 91%
    20:00 +2°C° 0 mm 1 mps 667 mmHg 92%
    21:00 +2°C° 0 mm 1 mps 667 mmHg 92%
    22:00 +1°C° 0 mm 1 mps 667 mmHg 93%
    23:00 +1°C° 0 mm 1 mps 667 mmHg 94%

    23 February, Thursday

    Time Temperature Precipitation Wind Pressure Humidity
    00:00 +1°C° 0 mm 1 mps 667 mmHg 94%
    01:00 +1°C° 0 mm 1 mps 667 mmHg 95%
    02:00 +1°C° 0 mm 1 mps 666 mmHg 95%
    03:00 +1°C° 0 mm 1 mps 666 mmHg 95%
    04:00 +1°C° 0 mm 1 mps 666 mmHg 95%
    05:00 -1°C° 0 mm 2 mps 666 mmHg 94%
    06:00 -1°C° 0 mm 2 mps 666 mmHg 93%
    07:00 -1°C° 0 mm 2 mps 666 mmHg 92%
    08:00 +2°C° 0 mm 2 mps 667 mmHg 81%
    09:00 +5°C° 0 mm 2 mps 668 mmHg 70%
    10:00 +7°C° 0 mm 2 mps 668 mmHg 59%
    11:00 +8°C° 0 mm 2 mps 668 mmHg 57%
    12:00 +9°C° 0 mm 2 mps 668 mmHg 55%
    13:00 +9°C° 0 mm 2 mps 668 mmHg 53%
    14:00 +9°C° 0 mm 2 mps 668 mmHg 58%
    15:00 +8°C° 0 mm 2 mps 667 mmHg 64%
    16:00 +8°C° 0 mm 2 mps 667 mmHg 69%
    17:00 +6°C° 0 mm 2 mps 667 mmHg 77%
    18:00 +4°C° 0 mm 2 mps 667 mmHg 85%
    19:00 +3°C° 0 mm 2 mps 666 mmHg 93%
    20:00 +3°C° 0 mm 2 mps 666 mmHg 94%
    21:00 +2°C° 0 mm 2 mps 667 mmHg 95%
    22:00 +2°C° 0 mm 2 mps 667 mmHg 95%
    23:00 +2°C° 0 mm 2 mps 667 mmHg 96%

    24 February, Friday

    Time Temperature Precipitation Wind Pressure Humidity
    00:00 +2°C° 0 mm 2 mps 666 mmHg 96%
    01:00 +2°C° 0 mm 2 mps 666 mmHg 96%
    02:00 +2°C° 0 mm 2 mps 666 mmHg 96%
    03:00 +2°C° 0 mm 2 mps 666 mmHg 97%
    04:00 +2°C° 0 mm 2 mps 665 mmHg 97%
    05:00 +2°C° 0 mm 2 mps 666 mmHg 96%
    06:00 +2°C° 0 mm 2 mps 666 mmHg 96%
    07:00 +3°C° 0 mm 2 mps 666 mmHg 96%
    08:00 +4°C° 0 mm 2 mps 666 mmHg 89%
    09:00 +5°C° 0 mm 3 mps 667 mmHg 82%
    10:00 +8°C° 0 mm 3 mps 667 mmHg 75%
    11:00 +8°C° 0 mm 3 mps 667 mmHg 72%
    12:00 +9°C° 0 mm 3 mps 667 mmHg 70%
    13:00 +10°C° 0 mm 3 mps 667 mmHg 67%
    14:00 +10°C° 0 mm 3 mps 667 mmHg 70%
    15:00 +9°C° 0 mm 3 mps 666 mmHg 74%
    16:00 +9°C° 0 mm 3 mps 666 mmHg 77%
    17:00 +8°C° 0.2 mm 3 mps 666 mmHg 82%
    18:00 +7°C° 0.2 mm 3 mps 666 mmHg 88%
    19:00 +5°C° 0.2 mm 3 mps 665 mmHg 93%
    20:00 +4°C° 0.1 mm 3 mps 665 mmHg 94%
    21:00 +4°C° 0.1 mm 3 mps 665 mmHg 94%
    22:00 +4°C° 0.1 mm 4 mps 665 mmHg 94%
    23:00 +4°C° 0.2 mm 4 mps 665 mmHg 93%

    25 February, Saturday

    Time Temperature Precipitation Wind Pressure Humidity
    00:00 +4°C° 0.2 mm 4 mps 664 mmHg 93%
    01:00 +4°C° 0.2 mm 4 mps 664 mmHg 92%
    02:00 +4°C° 0.1 mm 4 mps 664 mmHg 93%
    03:00 +4°C° 0.1 mm 4 mps 664 mmHg 93%
    04:00 +4°C° 0.1 mm 4 mps 663 mmHg 94%
    05:00 +5°C° 0.1 mm 4 mps 664 mmHg 94%
    06:00 +5°C° 0.1 mm 4 mps 664 mmHg 94%
    07:00 +5°C° 0.1 mm 3 mps 664 mmHg 94%
    08:00 +8°C° 0 mm 3 mps 665 mmHg 89%
    09:00 +9°C° 0 mm 3 mps 666 mmHg 83%
    10:00 +11°C° 0 mm 3 mps 667 mmHg 78%
    11:00 +12°C° 0 mm 3 mps 667 mmHg 74%
    12:00 +12°C° 0 mm 3 mps 667 mmHg 71%
    13:00 +13°C° 0 mm 3 mps 667 mmHg 67%
    14:00 +13°C° 0 mm 3 mps 667 mmHg 70%
    15:00 +12°C° 0 mm 3 mps 667 mmHg 73%
    16:00 +13°C° 0 mm 2 mps 667 mmHg 76%
    17:00 +10°C° 0 mm 2 mps 667 mmHg 82%
    18:00 +9°C° 0 mm 2 mps 667 mmHg 88%
    19:00 +7°C° 0 mm 2 mps 667 mmHg 94%
    20:00 +7°C° 0 mm 2 mps 667 mmHg 94%
    21:00 +6°C° 0 mm 2 mps 667 mmHg 93%
    22:00 +6°C° 0 mm 2 mps 667 mmHg 93%
    23:00 +6°C° 0 mm 2 mps 667 mmHg 92%
    Show more